RYR23BF EGPH-EIDW

Flight info

Callsign RYR23BF
Flight time 0h 39m
Altitude 22000
Route GOSAM P600 TRN/N0357F240 DCT BLACA P620 NIMAT NIMAT4L
Aircraft B738/M-SDE2E3FGHIRWXY/LB1

Departure

Time 2026-04-26 10:29
Airport Edinburgh Airport (EGPH)

Arrival

Time 2026-04-26 11:09
Airport Dublin Airport (EIDW)
Time Latitude Longitude Altitude Speed Heading
2026-04-26 09:42 55.94613 -3.36630 105 ft 0 kts 89°
2026-04-26 10:17 55.94613 -3.36647 105 ft 4 kts 89°
2026-04-26 10:18 55.94612 -3.36690 105 ft 4 kts 72°
2026-04-26 10:18 55.94598 -3.36725 104 ft 4 kts 26°
2026-04-26 10:18 55.94582 -3.36733 103 ft 0 kts 359°
2026-04-26 10:20 55.94660 -3.36735 106 ft 13 kts 359°
2026-04-26 10:20 55.94750 -3.36747 106 ft 13 kts 340°
2026-04-26 10:21 55.94837 -3.36777 107 ft 13 kts 359°
2026-04-26 10:21 55.94922 -3.36821 109 ft 13 kts 351°
2026-04-26 10:21 55.94967 -3.36769 111 ft 9 kts 52°
2026-04-26 10:21 55.95015 -3.36632 111 ft 19 kts 58°
2026-04-26 10:22 55.95102 -3.36375 110 ft 28 kts 59°
2026-04-26 10:22 55.95203 -3.36076 104 ft 29 kts 59°
2026-04-26 10:22 55.95307 -3.35771 105 ft 26 kts 59°
2026-04-26 10:22 55.95380 -3.35553 109 ft 19 kts 59°
2026-04-26 10:23 55.95437 -3.35412 109 ft 4 kts 30°
2026-04-26 10:23 55.95452 -3.35406 108 ft 0 kts
2026-04-26 10:25 55.95468 -3.35412 108 ft 5 kts 344°
2026-04-26 10:26 55.95490 -3.35431 107 ft 0 kts 329°
2026-04-26 10:27 55.95490 -3.35432 107 ft 0 kts 329°
2026-04-26 10:27 55.95501 -3.35443 106 ft 4 kts 329°
2026-04-26 10:27 55.95540 -3.35485 107 ft 7 kts 327°
2026-04-26 10:28 55.95561 -3.35558 107 ft 7 kts 269°
2026-04-26 10:28 55.95545 -3.35638 108 ft 7 kts 240°
2026-04-26 10:28 55.95520 -3.35710 108 ft 7 kts 238°
2026-04-26 10:28 55.95495 -3.35782 109 ft 7 kts 238°
2026-04-26 10:29 55.95465 -3.35870 105 ft 11 kts 239°
2026-04-26 10:29 55.95322 -3.36292 105 ft 88 kts 238°
2026-04-26 10:29 55.94845 -3.37703 228 ft 165 kts 239°
2026-04-26 10:29 55.94234 -3.39538 1359 ft 178 kts 239°
2026-04-26 10:30 55.93582 -3.41530 2542 ft 191 kts 238°
2026-04-26 10:30 55.92888 -3.43566 3571 ft 200 kts 239°
2026-04-26 10:30 55.92090 -3.45837 3912 ft 227 kts 237°
2026-04-26 10:30 55.91238 -3.48238 4346 ft 236 kts 238°
2026-04-26 10:31 55.90422 -3.50947 4571 ft 255 kts 253°
2026-04-26 10:31 55.90093 -3.53996 5245 ft 259 kts 261°
2026-04-26 10:31 55.89799 -3.57225 5927 ft 259 kts 261°
2026-04-26 10:31 55.89494 -3.60413 6258 ft 262 kts 260°
2026-04-26 10:32 55.89180 -3.63603 6275 ft 263 kts 260°
2026-04-26 10:32 55.88863 -3.66788 6285 ft 264 kts 260°
2026-04-26 10:32 55.88542 -3.69997 6306 ft 264 kts 259°
2026-04-26 10:32 55.88213 -3.73252 6769 ft 267 kts 259°
2026-04-26 10:33 55.87899 -3.76358 7557 ft 267 kts 259°
2026-04-26 10:33 55.87570 -3.79618 8390 ft 268 kts 259°
2026-04-26 10:33 55.87242 -3.82906 9179 ft 271 kts 259°
2026-04-26 10:33 55.86909 -3.86259 10012 ft 274 kts 259°
2026-04-26 10:34 55.86573 -3.89633 10675 ft 284 kts 259°
2026-04-26 10:34 55.86210 -3.93270 10861 ft 309 kts 259°
2026-04-26 10:34 55.85828 -3.97091 11285 ft 324 kts 259°
2026-04-26 10:34 55.85428 -4.01072 11980 ft 330 kts 259°
2026-04-26 10:35 55.85018 -4.05127 12786 ft 333 kts 259°
2026-04-26 10:35 55.84582 -4.09209 13573 ft 337 kts 255°
2026-04-26 10:35 55.83959 -4.11762 14064 ft 342 kts 236°
2026-04-26 10:35 55.81634 -4.15628 15120 ft 345 kts 220°
2026-04-26 10:36 55.80420 -4.17491 15657 ft 347 kts 224°
2026-04-26 10:36 55.78106 -4.21490 16659 ft 353 kts 219°
2026-04-26 10:36 55.76754 -4.23214 17180 ft 356 kts 214°
2026-04-26 10:36 55.74647 -4.25585 17956 ft 359 kts 213°
2026-04-26 10:37 55.72541 -4.28001 18720 ft 362 kts 214°
2026-04-26 10:37 55.70438 -4.30500 19349 ft 366 kts 215°
2026-04-26 10:37 55.68332 -4.33073 20040 ft 368 kts 216°
2026-04-26 10:37 55.66264 -4.35632 20859 ft 366 kts 216°
2026-04-26 10:38 55.64176 -4.38219 21709 ft 363 kts 216°
2026-04-26 10:38 55.62109 -4.40779 22481 ft 364 kts 215°
2026-04-26 10:38 55.60031 -4.43345 23229 ft 364 kts 215°
2026-04-26 10:38 55.57970 -4.45884 23996 ft 363 kts 215°
2026-04-26 10:39 55.55881 -4.48451 24702 ft 360 kts 215°
2026-04-26 10:39 55.53871 -4.50917 25438 ft 357 kts 215°
2026-04-26 10:39 55.51832 -4.53415 26049 ft 357 kts 215°
2026-04-26 10:39 55.49772 -4.55937 26227 ft 354 kts 215°
2026-04-26 10:40 55.47775 -4.58376 26261 ft 353 kts 215°
2026-04-26 10:40 55.45754 -4.60844 26271 ft 355 kts 215°
2026-04-26 10:40 55.43709 -4.63336 26276 ft 356 kts 215°
2026-04-26 10:40 55.41671 -4.65818 26273 ft 357 kts 215°
2026-04-26 10:41 55.39614 -4.68319 26274 ft 358 kts 215°
2026-04-26 10:41 55.37569 -4.70804 26272 ft 358 kts 214°
2026-04-26 10:41 55.35516 -4.73295 26268 ft 358 kts 214°
2026-04-26 10:41 55.33464 -4.75780 26267 ft 357 kts 214°
2026-04-26 10:42 55.31417 -4.78230 26265 ft 356 kts 212°
2026-04-26 10:42 55.29255 -4.80366 26268 ft 355 kts 207°
2026-04-26 10:42 55.27049 -4.82313 26260 ft 354 kts 206°
2026-04-26 10:42 55.24857 -4.84195 26263 ft 354 kts 206°
2026-04-26 10:43 55.22654 -4.86082 26267 ft 353 kts 206°
2026-04-26 10:43 55.20446 -4.87984 26266 ft 352 kts 206°
2026-04-26 10:43 55.18256 -4.89883 26266 ft 352 kts 206°
2026-04-26 10:43 55.16073 -4.91783 26264 ft 351 kts 207°
2026-04-26 10:44 55.13871 -4.93703 26266 ft 351 kts 207°
2026-04-26 10:44 55.11694 -4.95602 26268 ft 351 kts 206°
2026-04-26 10:44 55.09498 -4.97518 26265 ft 351 kts 206°
2026-04-26 10:44 55.07333 -4.99404 26263 ft 351 kts 206°
2026-04-26 10:45 55.05147 -5.01308 26269 ft 351 kts 206°
2026-04-26 10:45 55.02926 -5.03239 26270 ft 352 kts 206°
2026-04-26 10:45 55.00759 -5.05120 26274 ft 352 kts 206°
2026-04-26 10:45 54.98566 -5.07023 26268 ft 352 kts 206°
2026-04-26 10:46 54.96372 -5.08924 26265 ft 352 kts 206°
2026-04-26 10:46 54.94182 -5.10821 26267 ft 352 kts 206°
2026-04-26 10:46 54.91986 -5.12718 26265 ft 352 kts 206°
2026-04-26 10:46 54.89788 -5.14613 26269 ft 352 kts 206°
2026-04-26 10:47 54.87519 -5.16217 26257 ft 352 kts 197°
2026-04-26 10:47 54.85177 -5.17184 26268 ft 348 kts 192°
2026-04-26 10:47 54.82813 -5.18035 26258 ft 345 kts 192°
2026-04-26 10:47 54.80467 -5.18862 26266 ft 344 kts 192°
2026-04-26 10:48 54.78085 -5.19707 26271 ft 344 kts 192°
2026-04-26 10:48 54.75784 -5.20534 26269 ft 344 kts 192°
2026-04-26 10:48 54.73429 -5.21388 26262 ft 340 kts 192°
2026-04-26 10:48 54.71149 -5.22219 26254 ft 327 kts 192°
2026-04-26 10:49 54.68958 -5.23019 26249 ft 316 kts 192°
2026-04-26 10:49 54.66845 -5.23792 26245 ft 308 kts 192°
2026-04-26 10:49 54.64703 -5.24577 26281 ft 322 kts 192°
2026-04-26 10:49 54.62456 -5.25399 26292 ft 338 kts 192°
2026-04-26 10:50 54.60133 -5.26248 26291 ft 353 kts 192°
2026-04-26 10:50 54.58505 -5.26842 26241 ft 354 kts 192°
2026-04-26 10:50 54.55362 -5.27987 26101 ft 343 kts 192°
2026-04-26 10:50 54.53055 -5.28826 25902 ft 336 kts 192°
2026-04-26 10:51 54.50778 -5.29652 25600 ft 332 kts 192°
2026-04-26 10:51 54.46437 -5.32335 24669 ft 336 kts 206°
2026-04-26 10:51 54.44333 -5.34126 24263 ft 336 kts 206°
2026-04-26 10:52 54.42251 -5.35918 23929 ft 334 kts 206°
2026-04-26 10:52 54.40170 -5.37701 23561 ft 332 kts 206°
2026-04-26 10:52 54.38104 -5.39460 23169 ft 330 kts 206°
2026-04-26 10:52 54.36048 -5.41200 22791 ft 328 kts 206°
2026-04-26 10:53 54.34001 -5.42925 22410 ft 326 kts 206°
2026-04-26 10:53 54.31973 -5.44630 22036 ft 324 kts 206°
2026-04-26 10:53 54.29953 -5.46324 21674 ft 322 kts 206°
2026-04-26 10:54 54.25946 -5.49677 20964 ft 318 kts 206°
2026-04-26 10:54 54.23961 -5.51335 20609 ft 317 kts 206°
2026-04-26 10:54 54.22007 -5.52966 20268 ft 315 kts 206°
2026-04-26 10:54 54.20012 -5.54630 19926 ft 314 kts 206°
2026-04-26 10:55 54.18063 -5.56253 19589 ft 312 kts 206°
2026-04-26 10:55 54.16110 -5.57876 19275 ft 310 kts 206°
2026-04-26 10:55 54.14197 -5.59465 18939 ft 309 kts 206°
2026-04-26 10:55 54.12262 -5.61079 18606 ft 308 kts 206°
2026-04-26 10:56 54.10338 -5.62686 18258 ft 306 kts 206°
2026-04-26 10:56 54.08448 -5.64263 17894 ft 305 kts 206°
2026-04-26 10:56 54.06547 -5.65848 17538 ft 303 kts 206°
2026-04-26 10:56 54.04653 -5.67426 17197 ft 302 kts 206°
2026-04-26 10:57 54.02764 -5.68999 16854 ft 300 kts 206°
2026-04-26 10:57 54.00887 -5.70559 16501 ft 299 kts 205°
2026-04-26 10:57 53.99020 -5.72108 16165 ft 298 kts 205°
2026-04-26 10:57 53.97157 -5.73624 15842 ft 296 kts 201°
2026-04-26 10:58 53.95166 -5.74280 15493 ft 295 kts 182°
2026-04-26 10:58 53.93116 -5.74291 15196 ft 293 kts 179°
2026-04-26 10:58 53.91057 -5.74214 14864 ft 292 kts 179°
2026-04-26 10:58 53.89052 -5.74126 14556 ft 291 kts 179°
2026-04-26 10:59 53.87019 -5.74032 14266 ft 288 kts 179°
2026-04-26 10:59 53.85036 -5.73941 13934 ft 287 kts 179°
2026-04-26 10:59 53.83011 -5.73848 13571 ft 287 kts 179°
2026-04-26 10:59 53.81023 -5.73755 13225 ft 285 kts 179°
2026-04-26 11:00 53.79054 -5.73658 12961 ft 282 kts 179°
2026-04-26 11:00 53.77097 -5.73559 12698 ft 281 kts 179°
2026-04-26 11:00 53.75143 -5.73515 12473 ft 282 kts 186°
2026-04-26 11:00 53.73248 -5.74436 12223 ft 283 kts 201°
2026-04-26 11:01 53.71429 -5.75695 11698 ft 295 kts 202°
2026-04-26 11:01 53.69470 -5.77028 10960 ft 307 kts 202°
2026-04-26 11:01 53.67445 -5.78355 10236 ft 317 kts 201°
2026-04-26 11:01 53.65340 -5.79686 9461 ft 326 kts 201°
2026-04-26 11:02 53.63274 -5.80958 8716 ft 332 kts 200°
2026-04-26 11:02 53.61079 -5.82286 7955 ft 337 kts 200°
2026-04-26 11:02 53.58863 -5.83612 7221 ft 341 kts 200°
2026-04-26 11:02 53.56607 -5.84952 6480 ft 344 kts 200°
2026-04-26 11:03 53.54353 -5.86286 5705 ft 339 kts 200°
2026-04-26 11:03 53.52154 -5.87584 4949 ft 329 kts 200°
2026-04-26 11:03 53.50012 -5.88848 4175 ft 321 kts 199°
2026-04-26 11:03 53.47922 -5.90080 3502 ft 314 kts 199°
2026-04-26 11:04 53.45931 -5.91253 3243 ft 294 kts 199°
2026-04-26 11:04 53.44089 -5.92336 3096 ft 273 kts 199°
2026-04-26 11:04 53.42454 -5.93297 3029 ft 249 kts 199°
2026-04-26 11:04 53.40954 -5.94405 2971 ft 223 kts 218°
2026-04-26 11:05 53.40223 -5.96489 2894 ft 204 kts 263°
2026-04-26 11:05 53.40378 -5.98672 2867 ft 184 kts 277°
2026-04-26 11:05 53.40558 -6.00742 2800 ft 174 kts 275°
2026-04-26 11:05 53.40701 -6.02734 2697 ft 176 kts 274°
2026-04-26 11:06 53.40833 -6.04776 2583 ft 178 kts 274°
2026-04-26 11:06 53.40932 -6.06168 2446 ft 179 kts 276°
2026-04-26 11:06 53.41140 -6.08917 2163 ft 176 kts 274°
2026-04-26 11:06 53.41259 -6.10962 1887 ft 177 kts 274°
2026-04-26 11:07 53.41367 -6.12998 1667 ft 174 kts 272°
2026-04-26 11:07 53.41479 -6.15017 1451 ft 170 kts 273°
2026-04-26 11:07 53.41585 -6.16985 1160 ft 164 kts 274°
2026-04-26 11:07 53.41682 -6.18777 973 ft 149 kts 274°
2026-04-26 11:08 53.41771 -6.20411 809 ft 142 kts 274°
2026-04-26 11:08 53.41858 -6.22011 636 ft 142 kts 275°
2026-04-26 11:08 53.41946 -6.23709 424 ft 145 kts 275°
2026-04-26 11:08 53.42034 -6.25365 251 ft 144 kts 277°
2026-04-26 11:09 53.42121 -6.26871 219 ft 116 kts 276°
2026-04-26 11:09 53.42182 -6.27887 211 ft 64 kts 275°
2026-04-26 11:09 53.42223 -6.28167 219 ft 27 kts 300°
2026-04-26 11:09 53.42370 -6.28240 219 ft 19 kts 80°
2026-04-26 11:10 53.42364 -6.28088 215 ft 19 kts 95°
2026-04-26 11:10 53.42352 -6.27873 214 ft 18 kts 95°
2026-04-26 11:10 53.42341 -6.27662 210 ft 18 kts 95°
2026-04-26 11:10 53.42330 -6.27457 210 ft 17 kts 95°
2026-04-26 11:11 53.42320 -6.27261 213 ft 17 kts 95°
2026-04-26 11:11 53.42310 -6.27069 210 ft 16 kts 95°
2026-04-26 11:11 53.42299 -6.26888 210 ft 15 kts 95°
2026-04-26 11:11 53.42289 -6.26700 210 ft 18 kts 95°
2026-04-26 11:12 53.42277 -6.26478 219 ft 21 kts 95°
2026-04-26 11:12 53.42262 -6.26212 213 ft 25 kts 95°
2026-04-26 11:12 53.42292 -6.25922 211 ft 27 kts 52°
2026-04-26 11:12 53.42426 -6.25689 210 ft 26 kts 45°
2026-04-26 11:13 53.42513 -6.25540 213 ft 1 kts 46°
2026-04-26 11:13 53.42517 -6.25534 213 ft 1 kts 46°
2026-04-26 11:13 53.42527 -6.25516 210 ft 4 kts 46°
2026-04-26 11:13 53.42560 -6.25461 209 ft 10 kts 45°
2026-04-26 11:14 53.42620 -6.25359 212 ft 14 kts 45°
2026-04-26 11:14 53.42699 -6.25225 213 ft 18 kts 45°
2026-04-26 11:14 53.42795 -6.25065 210 ft 20 kts 32°
2026-04-26 11:14 53.42894 -6.24913 212 ft 19 kts 47°
2026-04-26 11:15 53.42942 -6.24778 220 ft 10 kts 61°
2026-04-26 11:15 53.42983 -6.24750 211 ft 2 kts
2026-04-26 11:15 53.42988 -6.24749 210 ft 2 kts
2026-04-26 11:15 53.42996 -6.24748 210 ft 0 kts
2026-04-26 11:16 53.42998 -6.24748 210 ft 0 kts